星链-34667 (STARLINK-34667)

导读 | 豆包AI

STARLINK-34667是美国于2025年7月16日发射的Starlink星链系列卫星,星链是SpaceX打造的低轨卫星互联网星座,旨在为全球提供高速低延迟互联网服务。该卫星延续星链标准化设计,部署于近地轨道,进一步扩充星链星座规模,提升星座覆盖密度与服务能力,助力全球互联网覆盖布局完善。

Basic Information
目录编号:
64815
目录名称:
STARLINK-34667
国际标识:
2025-150AB
轨道中心:
EARTH
卫星名称:
星链-34667
卫星全名:
星链-34667 (STARLINK-34667)
卫星状态:
在轨 (已飞行287 天)
发射日期:
2025-07-16 UTC
国别 :
美国 (US)
星等 :
--
Orbit Information
数据来源 国际轨道数据 AOE轨道数据
星历时间 2026-04-29T08:10:54+0800
15小时前
查看轨道信息
2026-04-23T01:00:00+0800
6天前
查看轨道信息
半长轴 6950.188km 6950.203km
偏心率 0.0002465 0.0002621
轨道倾角 70.002° 70.001°
近地点辐角 263.190° 277.205°
升交点赤经 7.596° 23.476°
平近点角 96.898° 314.582°
近地点 570.337km 570.244km
远地点 573.765km 573.888km
周期 96.107分钟 96.107分钟
每日圈数 14.983317 14.983269
Detailed Information
固有亮度:
5
最大亮度:
2.5
卫星平台:
Starlink V1.0
覆盖范围:
全球
运营商:
太空探索技术公司
运营商所在国:
美国
制造商(研发单位):
太空探索技术公司
制造商所在国:
美国
使用方式:
暂无
Satellite Introduction
Starlink 计划是 SpaceX 推出的全球卫星互联网项目,通过发射低轨道卫星,为全球尤其是偏远地区提供高速、低延迟的互联网服务。自 2019 年起,Starlink 已部署数千颗卫星,旨在缩小全球数字鸿沟,推动互联网普及。该项目还为军事、航空等行业提供通信支持,带来广泛经济效益。
2D Orbit Map
3D Orbit Map
Orbit Altitude Analysis Chart
Orbit Inclination Analysis Chart
Orbit Comprehensive Analysis Chart
View Comprehensive Chart